Tracking 25709 objects as of 23-May-2022
HD Live streaming from Space Station
objects crossing your sky now

OPS 9316 (IDSCS 6)

Track OPS 9316 (IDSCS 6) now!
OPS 9316 (IDSCS 6) is classified as:


NORAD ID: 2220
Int'l Code: 1966-053G
Perigee: 33,727.7 km
Apogee: 34,207.5 km
Inclination: 5.6 °
Period: 1,343.8 minutes
Semi major axis: 40338 km
RCS: 0.0794 m2 (small)
Launch date: June 16, 1966
Source: United States (US)
Launch site: AIR FORCE EASTERN TEST RANGE (AFETR)
aabbcc
Your satellite tracking list
Your tracking list is empty




NASA's NSSDC Master Catalog

Two Line Element Set (TLE):
1 02220U 66053G   22142.76465390 -.00000132  00000-0  00000-0 0  9994
2 02220   5.6075  57.3648 0059476 138.0523  55.0250  1.07157362123125
Source of the keplerian elements: AFSPC